Flag for France Weather past 2 weeks in Paris, France

37 °F


Feels Like: 32 °F
Forecast: 36 / 47 °F
Wind: 7 mph from Northwest

Location: Villacoublay

Current Time: Nov 26, 2015 at 2:38:08 AM

Latest Report: Nov 26, 2015 at 2:00 AM

Visibility: 10 mi

Pressure: 29.98 "Hg

Humidity: 93%

Dew point: 36 °F

Location of ParisLocation

Historic Weather in Paris — Graph


Paris temperature yesterday

Maximum temperature yesterday: 48 °F (at 2:30 PM)
Minimum temperature yesterday: 41 °F (at 11:00 PM)
Average temperature yesterday: 45 °F

Past Weeks' High & Low Weather Summary

High61 °F (Nov 15, 12:30 PM)100% (Nov 11, 1:00 AM)30.48 "Hg (Nov 11, 1:00 AM)
Low32 °F (Nov 23, 4:30 AM)51% (Nov 13, 4:00 PM)29.56 "Hg (Nov 21, 4:00 AM)
Average49 °F88%30.08 "Hg
* Reported Nov 11 1:00 AM — Nov 26 1:00 AM, Paris, Weather by CustomWeather, © 2015

Note: Actual official high and low records may vary slightly from our data, if they occured in-between our weather recording intervals... More about our weather records


Paris weather history for previous 24 hours

Time TempWeatherWind HumidityBarometerVisibility
1:00 AM
Thu, Nov 26
41 °FPassing clouds.6 mph81%29.95 "HgN/A
12:00 AM41 °FClear.7 mph87%29.95 "Hg10 mi
11:30 PM
Wed, Nov 25
41 °FPassing clouds.6 mph87%29.95 "HgN/A
11:00 PM41 °FPassing clouds.6 mph87%29.95 "HgN/A
10:30 PM43 °FClear.N/A81%29.95 "Hg10 mi
10:00 PM43 °FPassing clouds.8 mph81%29.92 "HgN/A
9:30 PM43 °FPassing clouds.7 mph81%29.92 "HgN/A
9:00 PM43 °FPassing clouds.7 mph87%29.92 "HgN/A
8:30 PM43 °FPassing clouds.8 mph87%29.89 "HgN/A
8:00 PM45 °FPassing clouds.10 mph81%29.89 "HgN/A
7:30 PM45 °FPassing clouds.12 mph87%29.89 "HgN/A
7:00 PM43 °FPassing clouds.7 mph93%29.86 "HgN/A
6:30 PM43 °FRain. Fog.17 mph93%29.86 "Hg3 mi
6:00 PM46 °FPartly cloudy.5 mph93%29.86 "HgN/A
5:30 PM46 °FPartly cloudy.8 mph93%29.83 "HgN/A
5:00 PM46 °FLight rain. Broken clouds.N/A93%29.83 "Hg6 mi
4:30 PM46 °FBroken clouds.9 mph93%29.83 "HgN/A
4:00 PM46 °FLight rain. Broken clouds.13 mph93%29.83 "HgN/A
3:30 PM48 °FLight rain. Broken clouds.10 mph87%29.83 "HgN/A
3:00 PM46 °FBroken clouds.N/A93%29.83 "HgN/A
2:30 PM48 °FBroken clouds.12 mph87%29.83 "HgN/A
2:00 PM46 °FSunny.12 mph93%29.83 "Hg10 mi
1:30 PM46 °FPartly sunny.9 mph93%29.86 "HgN/A
1:00 PM46 °FLight rain. Broken clouds.10 mph87%29.86 "HgN/A
12:30 PM46 °FLight rain. Broken clouds.10 mph93%29.86 "HgN/A
12:00 PM46 °FBroken clouds.10 mph93%29.86 "HgN/A
11:30 AM46 °FBroken clouds.10 mph93%29.86 "HgN/A
11:00 AM46 °FCloudy.10 mph87%29.86 "HgN/A
10:30 AM46 °FMostly cloudy.10 mph93%29.86 "HgN/A
10:00 AM45 °FPartly sunny.N/A93%29.86 "HgN/A
9:30 AM45 °FPartly sunny.10 mph100%29.86 "HgN/A
9:00 AM45 °FMore clouds than sun.8 mph100%29.86 "HgN/A
8:30 AM45 °FBroken clouds.7 mph93%29.86 "HgN/A
8:00 AM45 °FPartly cloudy.8 mph93%29.86 "HgN/A
7:00 AM45 °FPassing clouds.9 mph93%29.83 "HgN/A
6:30 AM45 °FPassing clouds.8 mph93%29.83 "HgN/A
6:00 AM45 °FPartly cloudy.8 mph100%29.83 "HgN/A
5:30 AM45 °FLight rain. Passing clouds.12 mph100%29.86 "Hg4 mi
5:00 AM45 °FLight rain. Partly cloudy.9 mph100%29.83 "HgN/A
4:30 AM45 °FLight rain. Passing clouds.12 mph100%29.83 "HgN/A
4:00 AM46 °FMostly cloudy.7 mph93%29.83 "HgN/A
3:30 AM46 °FPassing clouds.8 mph93%29.86 "HgN/A
3:00 AM45 °FPassing clouds.8 mph100%29.86 "HgN/A
2:30 AM45 °FPartly cloudy.7 mph100%29.86 "HgN/A
2:00 AM45 °FPassing clouds.7 mph93%29.86 "HgN/A
Weather by CustomWeather, © 2015

See weather overviewHow to use our weather pages